This is the latest recevied weather packets stored in our database for station/object 9W2EXL-13. If no packets are shown the sender has not sent any weather packets the latest 10 day(s).
| Time | Temp. | Humidity | Pressure | Rain* | Wind** | Luminosity | Snow |
|---|---|---|---|---|---|---|---|
| 1788617231 | 32.22° C | 85% | 1012.7 hPa | - | - | - | - |
| 1788616331 | 32.22° C | 84% | 1012.6 hPa | - | - | - | - |
| 1788614531 | 32.78° C | 83% | 1012.3 hPa | - | - | - | - |
| 1788611831 | 32.78° C | 81% | 1011.6 hPa | - | - | - | - |
| 1788610930 | 33.33° C | 80% | 1011.3 hPa | - | - | - | - |
| 1788610030 | 33.33° C | 79% | 1011.2 hPa | - | - | - | - |
| 1788608230 | 33.33° C | 78% | 1011 hPa | - | - | - | - |
| 1788606430 | 34.44° C | 72% | 1010.7 hPa | - | - | - | - |
| 1788605530 | 35° C | 67% | 1010.5 hPa | - | - | - | - |
| 1788604630 | 35° C | 66% | 1010.4 hPa | - | - | - | - |
| 1788603730 | 34.44° C | 67% | 1010.2 hPa | - | - | - | - |
| 1788601029 | 34.44° C | 70% | 1009.7 hPa | - | - | - | - |
| 1788599230 | 35° C | 64% | 1009.7 hPa | - | - | - | - |
| 1788598329 | 34.44° C | 65% | 1010 hPa | - | - | - | - |
| 1788597429 | 34.44° C | 64% | 1010.2 hPa | - | - | - | - |
| 1788596529 | 34.44° C | 67% | 1010 hPa | - | - | - | - |
| 1788595629 | 33.89° C | 69% | 1010.1 hPa | - | - | - | - |
| 1788594729 | 32.78° C | 77% | 1010.1 hPa | - | - | - | - |
| 1788593831 | 33.33° C | 72% | 1010.4 hPa | - | - | - | - |
| 1788592928 | 34.44° C | 70% | 1010.3 hPa | - | - | - | - |
| 1788592028 | 33.89° C | 73% | 1010.3 hPa | - | - | - | - |
| 1788591131 | 34.44° C | 71% | 1010.5 hPa | - | - | - | - |
| 1788590228 | 34.44° C | 71% | 1010.7 hPa | - | - | - | - |
| 1788589328 | 35° C | 70% | 1010.9 hPa | - | - | - | - |
| 1788588428 | 35° C | 68% | 1011.2 hPa | - | - | - | - |
* Rain since midnight (hover to see other rain measurements)
** Current wind speed in m/s (hover to see current wind gust speed)